SCP
0 0 0 0 0 0 0 0 0 1 4 6 4 4 4 4 3 3 1 1 0 1 1 1 1 1 1 1 0 0 0 0 0 0 0 0 0 0 0 0 0 0 0
0 0 0 0 0 0 0 0 0 0 0 0 0 0 1 3 3 4 5 3 2 1 2 2 1 1 1 1 0 0 0 0 0 0 0 0 0 0 0 0 0 0 0
0 0 0 0 0 0 0 0 0 0 0 0 0 0 0 0 1 1 2 5 7 6 0 1 2 2 1 1 0 0 0 0 0 0 0 0 0 0 0 1 -0 0 0
0 0 0 0 0 0 0 0 0 0 0 0 0 0 0 0 0 0 0 0 0 0 5 1 1 1 1 1 1 0 0 0 0 0 1 0 0 1 0 0 0 0 0
0 0 0 0 0 0 0 0 0 0 0 0 0 0 0 0 0 0 0 0 0 0 3 1 1 1 1 1 1 1 1 1 1 0 1 1 0 0 1 0 -0 0 0
0 0 0 0 0 0 0 0 0 0 0 0 0 0 0 0 0 0 0 0 0 0 0 1 2 0 0 1 1 1 0 1 1 1 1 0 0 0 1 1 0 0 0
0 0 0 0 0 0 0 0 0 0 0 0 0 0 0 0 0 0 0 0 0 0 0 1 1 1 2 1 1 0 0 1 1 2 1 1 0 0 1 1 1 0 0
0 0 0 0 0 0 0 0 0 0 0 0 0 0 0 0 0 0 0 0 0 0 0 0 0 1 1 3 3 2 1 1 1 2 2 2 2 1 1 1 1 0 0
0 0 0 0 0 0 0 0 0 0 0 0 0 0 0 0 0 0 0 0 0 0 0 0 0 0 1 1 2 3 3 4 2 2 1 1 2 2 1 1 0 0 0
0 0 0 0 0 0 0 0 0 0 0 0 0 0 0 0 0 0 0 0 0 0 0 0 0 0 0 0 0 1 2 2 3 4 2 2 2 0 1 0 0 0 0
0 0 0 0 0 0 0 0 0 0 0 0 0 0 0 0 0 0 0 0 0 0 0 0 0 0 0 0 0 0 0 1 2 3 3 2 1 0 0 0 1 0 0
0 0 0 -0 0 0 0 0 0 0 0 0 0 0 0 0 0 0 0 0 0 0 0 0 0 0 0 0 0 0 0 0 0 0 1 1 1 0 0 0 0 0 0
0 0 0 0 0 0 0 0 0 0 0 0 0 0 0 0 0 0 0 0 0 0 0 0 0 0 0 0 0 0 0 0 0 0 0 0 1 0 0 0 0 0 0
0 0 0 0 -0 0 0 0 0 0 0 0 0 0 0 0 0 0 0 0 0 0 0 0 0 0 0 0 0 0 0 0 0 0 0 0 1 0 0 1 0 0 0
0 0 0 0 0 0 0 0 -0 0 0 0 0 0 0 0 0 0 0 0 0 0 0 0 0 0 0 0 0 0 0 0 0 0 0 0 0 0 0 1 0 0 0
0 0 0 0 0 0 0 0 0 0 0 0 0 0 0 0 0 0 0 0 0 0 0 0 0 0 0 0 0 0 0 0 0 0 0 1 1 1 0 1 0 0 0
0 0 0 0 0 0 0 0 0 0 0 0 0 0 0 0 0 0 0 0 0 0 0 0 0 0 0 -0 -0 0 -0 -0 -0 0 0 1 2 1 0 0 0 0 0
0 0 0 0 0 0 0 0 0 0 0 0 0 0 0 0 0 0 0 0 0 0 0 0 0 0 0 -0 -0 -0 0 -0 -0 -0 0 0 1 0 0 0 0 0 0
-0 -0 0 0 0 0 0 0 0 0 0 0 0 0 0 0 0 0 0 0 0 0 0 0 0 0 0 -0 -0 -0 -0 -0 -0 -0 0 0 0 0 0 0 0 0 0
-0 -0 -0 0 0 0 0 0 0 0 0 0 0 0 0 0 0 0 0 0 0 0 0 0 0 0 0 0 -0 -0 -0 -0 -0 -0 0 0 0 0 0 0 0 0 0
-0 -0 -0 -0 0 0 0 0 0 0 0 0 0 0 0 0 0 0 0 0 0 0 0 0 0 0 0 0 -0 -0 -0 -0 -0 -0 0 0 0 0 0 0 0 0 0
-0 0 0 0 0 0 0 0 0 0 0 0 0 0 0 0 0 0 0 0 0 0 0 0 0 0 0 0 0 -0 -0 0 -0 0 0 0 0 0 0 0 0 0 0
-0 -0 -0 -0 0 0 0 -0 -0 0 0 0 0 0 0 0 0 0 0 0 0 0 0 0 0 0 0 0 0 -0 0 0 0 0 0 0 0 0 0 0 0 0 0
-0 -0 -0 0 0 0 0 0 0 0 0 0 0 0 0 0 0 0 0 0 0 0 0 0 0 0 0 0 0 -0 -0 -0 0 0 0 0 0 0 0 0 0 0 0
0 0 0 0 0 0 0 0 0 -0 0 0 0 0 0 0 0 0 0 0 0 0 0 0 0 0 0 0 -0 -0 0 0 0 0 0 0 0 0 0 0 0 0 0
0 0 0 0 -0 -0 0 0 -0 0 0 0 0 0 0 0 0 0 0 0 0 0 0 0 0 0 0 0 0 0 0 0 0 0 0 0 0 0 0 0 0 0 0
Wind_Speed_500mb
24 30 59 65 61 57 54 53 59 63 64 63 55 39 44 52 56 54 73 65 60 42 41 47 45 45 50 48 48 57 57 55 52 50 48 41 36 32 23 19 27 33 39
46 35 57 63 62 60 61 58 64 71 69 69 63 58 52 47 56 58 51 42 55 55 48 51 49 52 56 53 53 54 58 56 51 45 43 41 44 28 28 33 23 27 34
66 63 53 74 73 69 62 57 63 72 70 68 67 64 60 62 60 54 44 27 28 34 26 43 46 42 44 42 39 49 49 53 53 52 41 19 15 38 46 39 28 41 42
76 76 73 78 85 78 70 69 70 63 60 64 66 64 61 60 61 69 65 52 55 45 41 53 52 58 53 45 35 38 37 40 53 49 53 47 44 29 35 36 50 48 39
63 69 75 87 88 79 69 61 57 52 50 50 54 65 68 61 56 63 70 74 70 82 94 74 64 60 53 55 41 35 38 31 39 43 52 48 49 41 47 66 60 62 53
76 74 67 87 86 70 61 50 38 30 32 38 41 47 55 58 63 68 74 70 73 74 83 103 103 81 68 68 59 54 54 51 50 42 40 45 38 34 48 39 53 54 61
32 56 75 84 78 68 49 36 30 29 35 30 26 36 42 44 47 51 55 57 63 67 66 59 59 69 75 69 62 71 76 57 57 50 45 48 48 50 55 52 51 50 63
24 21 65 82 70 55 45 43 35 31 27 26 24 25 34 41 40 40 41 46 49 54 61 64 73 87 72 75 69 72 78 69 62 58 58 58 61 53 61 59 45 57 77
13 20 49 59 59 59 54 47 42 36 39 37 37 35 30 35 41 41 42 44 42 45 51 51 51 52 65 87 93 75 73 87 81 61 61 72 69 63 73 70 64 63 62
30 4 30 61 55 54 50 45 40 45 52 55 52 47 39 31 39 37 37 37 47 47 44 46 50 50 49 54 54 73 82 78 76 81 74 67 63 64 79 69 55 71 63
24 4 22 28 29 53 52 48 55 62 68 66 60 59 51 46 41 41 40 37 38 44 50 47 47 50 51 59 66 68 67 65 65 67 75 72 70 78 84 91 94 71 64
35 38 26 35 39 43 57 63 59 63 67 62 71 70 61 58 58 52 49 44 40 39 41 47 50 49 49 46 50 54 56 64 69 66 72 70 67 73 77 86 89 68 60
39 48 65 60 38 39 33 51 67 66 63 64 71 80 74 69 68 63 55 51 51 47 46 45 48 52 51 56 59 58 54 55 57 64 67 74 65 69 75 83 70 61 54
42 40 61 72 63 52 46 46 70 84 69 60 67 73 77 78 79 73 62 61 63 57 59 53 49 53 58 57 56 59 62 60 56 58 76 75 70 69 86 71 74 62 56
29 21 28 26 36 63 56 58 61 52 61 61 62 69 74 78 84 78 71 68 68 67 66 63 61 58 60 66 63 63 56 60 56 53 59 71 74 79 82 71 69 55 54
3 10 11 9 6 11 23 20 33 29 31 42 48 67 77 82 83 75 76 77 78 76 73 73 68 67 70 61 62 64 59 59 67 61 54 64 67 76 68 62 57 51 54
36 39 34 35 37 46 46 46 46 41 36 39 47 47 46 55 59 61 77 84 86 83 83 83 80 79 74 70 65 64 70 62 74 68 59 55 59 59 57 54 48 44 41
49 47 49 55 58 58 57 57 62 66 61 60 64 67 69 73 76 73 73 83 90 92 91 94 91 86 81 83 77 73 67 69 71 75 65 56 61 58 52 51 46 50 44
61 61 66 74 69 70 72 71 66 61 64 76 82 82 81 87 90 95 93 90 99 103 103 101 95 91 84 82 81 74 68 69 73 70 69 57 56 53 47 46 44 57 50
81 80 77 68 74 78 72 72 75 76 80 84 84 82 87 97 90 88 89 92 95 106 110 109 105 96 88 86 85 77 68 69 74 72 61 56 50 48 49 54 58 63 50
83 97 84 84 79 67 63 80 84 91 95 99 103 102 100 101 91 89 86 80 84 99 110 117 115 103 92 88 88 81 74 65 69 70 54 51 47 49 53 56 58 57 44
84 79 76 70 74 74 77 88 94 90 83 94 95 94 93 92 95 100 113 114 99 90 102 112 111 107 104 95 101 91 82 67 68 65 51 50 46 49 48 54 52 41 40
75 67 74 84 78 70 75 87 92 89 84 81 91 101 103 104 104 103 104 106 106 108 100 102 106 104 107 100 105 98 78 65 64 63 54 53 48 49 50 51 45 47 42
78 71 71 73 77 80 78 82 86 86 89 89 95 100 101 106 109 112 113 110 101 103 104 97 92 88 101 105 109 96 75 66 61 57 64 55 52 58 56 51 48 43 37
77 76 76 77 83 80 75 71 74 75 81 87 97 104 109 111 121 125 125 119 125 111 102 96 92 84 94 104 109 102 85 53 56 63 59 65 71 75 63 53 48 44 40
76 75 76 78 80 77 76 72 66 67 79 90 102 105 101 89 89 92 110 124 121 115 108 100 92 86 89 93 78 64 53 48 60 57 69 81 87 79 64 56 50 45 40
Wind_Direction_500mb
292 268 223 221 217 214 210 210 225 215 208 209 212 211 225 225 231 247 236 239 255 240 242 242 248 253 260 262 262 260 259 264 273 284 281 283 286 307 316 328 318 301 303
274 241 228 231 234 234 232 231 226 224 218 222 227 233 229 221 220 228 231 224 233 245 245 247 249 272 270 266 260 257 255 264 269 272 288 294 295 302 308 311 320 321 302
288 274 240 231 230 230 230 224 223 228 217 218 226 230 235 240 237 229 214 208 210 209 266 255 259 263 273 263 264 261 253 263 268 270 268 269 279 293 309 295 322 331 324
282 274 261 230 224 220 213 211 213 217 219 216 218 227 232 234 236 236 232 233 238 224 238 268 263 260 271 267 273 271 267 264 266 264 257 248 261 277 291 293 317 327 319
282 276 254 235 211 203 200 202 208 213 219 220 224 230 234 232 230 237 241 243 240 236 246 254 256 256 267 258 262 273 277 266 263 257 259 255 249 260 266 284 307 309 316
277 272 245 222 194 192 193 191 198 210 227 239 242 240 238 239 243 244 242 244 244 244 243 247 247 264 267 260 262 269 274 266 262 259 259 245 253 265 255 273 298 306 295
279 230 204 186 182 183 183 197 211 226 232 234 251 254 249 244 243 243 244 247 248 244 236 232 236 241 254 247 257 269 272 266 262 262 261 263 265 276 270 261 282 291 299
24 164 178 177 181 185 203 206 208 196 208 238 252 264 258 252 249 246 248 249 248 249 244 247 249 250 250 251 252 259 263 273 259 262 261 264 274 273 270 260 261 284 284
223 243 196 199 205 208 205 206 203 213 219 230 241 246 259 262 257 264 264 259 257 254 257 251 252 249 245 249 250 254 258 265 270 266 263 259 264 273 269 263 276 278 278
105 59 216 226 230 219 211 213 221 227 227 229 235 245 243 255 263 259 262 269 268 259 258 257 253 253 250 248 251 250 253 254 263 267 262 260 264 273 263 261 282 275 259
181 340 8 319 281 227 211 220 229 228 228 234 241 242 238 236 245 256 259 267 280 270 267 267 265 261 262 255 258 257 258 258 257 263 261 262 262 266 262 264 276 266 254
195 233 260 311 315 286 244 230 237 229 233 245 243 240 241 240 239 243 252 267 277 279 282 276 274 276 273 269 267 267 263 263 260 262 261 260 261 265 268 271 273 255 249
245 246 250 255 291 291 276 253 244 240 241 245 244 241 239 239 237 237 249 260 274 277 280 283 275 273 277 276 274 276 273 270 268 264 270 258 260 262 268 274 270 259 249
254 258 249 257 281 271 260 262 274 281 246 248 251 240 239 238 238 235 241 257 267 265 271 278 279 284 283 280 282 281 277 280 275 263 251 259 259 257 267 272 261 259 245
269 299 280 289 284 272 266 283 275 281 249 244 240 239 237 240 238 238 241 255 258 255 265 272 274 280 283 282 280 284 285 269 276 278 267 251 246 254 260 260 257 251 235
329 315 341 281 310 312 275 274 281 276 279 261 249 243 241 235 233 245 249 256 255 256 263 265 272 277 287 280 282 275 275 266 267 270 268 270 260 255 264 261 260 241 240
336 325 323 316 300 289 288 281 281 279 280 279 267 261 252 244 248 257 250 251 249 255 262 266 272 278 283 278 288 287 266 270 266 266 270 267 264 261 260 263 257 237 242
322 317 311 305 300 295 290 289 288 286 283 278 273 269 267 266 263 259 252 251 253 254 258 264 269 273 274 281 285 288 279 264 269 267 267 268 266 261 259 253 246 240 230
309 302 299 296 292 291 294 293 290 281 277 274 272 273 275 269 265 263 262 254 251 253 252 256 260 262 269 277 282 284 280 264 264 263 262 266 262 256 252 228 232 245 226
302 304 305 294 290 291 288 280 275 273 273 272 272 270 269 270 265 257 254 256 255 254 255 255 255 256 262 272 274 279 279 275 263 261 261 262 259 246 237 222 231 234 229
299 300 297 288 284 278 275 279 279 276 276 279 282 278 268 260 255 252 247 244 250 252 253 253 252 252 257 267 270 273 283 273 263 259 263 262 258 238 225 228 228 229 227
297 295 293 292 288 284 286 285 281 279 275 276 275 267 262 260 256 253 251 250 250 245 244 246 248 250 254 258 262 271 277 268 264 251 256 266 246 224 223 234 215 210 204
295 293 293 293 294 287 283 281 280 282 281 272 270 269 266 261 256 252 249 248 244 242 238 233 237 242 250 253 257 269 271 265 250 242 248 262 220 219 226 198 192 191 195
300 300 297 294 290 287 285 283 282 282 279 278 279 275 270 265 258 248 244 242 237 234 230 227 225 230 241 244 254 264 266 259 233 234 239 229 214 213 187 185 190 196 201
300 300 298 295 296 302 300 299 295 292 289 287 283 278 271 258 256 253 244 235 235 228 220 220 221 226 237 244 253 258 259 237 229 218 222 195 193 182 185 186 190 195 196
304 302 301 300 303 305 308 310 307 302 294 290 290 280 272 267 258 247 238 236 230 227 220 220 220 223 233 244 250 240 226 233 215 201 186 172 178 179 181 183 186 194 198
Wind_Speed_850mb
24 30 59 65 61 57 54 53 59 63 64 63 55 39 44 52 56 54 73 65 60 42 41 47 45 45 50 48 48 57 57 55 52 50 48 41 36 32 23 19 27 33 39
46 35 57 63 62 60 61 58 64 71 69 69 63 58 52 47 56 58 51 42 55 55 48 51 49 52 56 53 53 54 58 56 51 45 43 41 44 28 28 33 23 27 34
66 63 53 74 73 69 62 57 63 72 70 68 67 64 60 62 60 54 44 27 28 34 26 43 46 42 44 42 39 49 49 53 53 52 41 19 15 38 46 39 28 41 42
76 76 73 78 85 78 70 69 70 63 60 64 66 64 61 60 61 69 65 52 55 45 41 53 52 58 53 45 35 38 37 40 53 49 53 47 44 29 35 36 50 48 39
63 69 75 87 88 79 69 61 57 52 50 50 54 65 68 61 56 63 70 74 70 82 94 74 64 60 53 55 41 35 38 31 39 43 52 48 49 41 47 66 60 62 53
76 74 67 87 86 70 61 50 38 30 32 38 41 47 55 58 63 68 74 70 73 74 83 103 103 81 68 68 59 54 54 51 50 42 40 45 38 34 48 39 53 54 61
32 56 75 84 78 68 49 36 30 29 35 30 26 36 42 44 47 51 55 57 63 67 66 59 59 69 75 69 62 71 76 57 57 50 45 48 48 50 55 52 51 50 63
24 21 65 82 70 55 45 43 35 31 27 26 24 25 34 41 40 40 41 46 49 54 61 64 73 87 72 75 69 72 78 69 62 58 58 58 61 53 61 59 45 57 77
13 20 49 59 59 59 54 47 42 36 39 37 37 35 30 35 41 41 42 44 42 45 51 51 51 52 65 87 93 75 73 87 81 61 61 72 69 63 73 70 64 63 62
30 4 30 61 55 54 50 45 40 45 52 55 52 47 39 31 39 37 37 37 47 47 44 46 50 50 49 54 54 73 82 78 76 81 74 67 63 64 79 69 55 71 63
24 4 22 28 29 53 52 48 55 62 68 66 60 59 51 46 41 41 40 37 38 44 50 47 47 50 51 59 66 68 67 65 65 67 75 72 70 78 84 91 94 71 64
35 38 26 35 39 43 57 63 59 63 67 62 71 70 61 58 58 52 49 44 40 39 41 47 50 49 49 46 50 54 56 64 69 66 72 70 67 73 77 86 89 68 60
39 48 65 60 38 39 33 51 67 66 63 64 71 80 74 69 68 63 55 51 51 47 46 45 48 52 51 56 59 58 54 55 57 64 67 74 65 69 75 83 70 61 54
42 40 61 72 63 52 46 46 70 84 69 60 67 73 77 78 79 73 62 61 63 57 59 53 49 53 58 57 56 59 62 60 56 58 76 75 70 69 86 71 74 62 56
29 21 28 26 36 63 56 58 61 52 61 61 62 69 74 78 84 78 71 68 68 67 66 63 61 58 60 66 63 63 56 60 56 53 59 71 74 79 82 71 69 55 54
3 10 11 9 6 11 23 20 33 29 31 42 48 67 77 82 83 75 76 77 78 76 73 73 68 67 70 61 62 64 59 59 67 61 54 64 67 76 68 62 57 51 54
36 39 34 35 37 46 46 46 46 41 36 39 47 47 46 55 59 61 77 84 86 83 83 83 80 79 74 70 65 64 70 62 74 68 59 55 59 59 57 54 48 44 41
49 47 49 55 58 58 57 57 62 66 61 60 64 67 69 73 76 73 73 83 90 92 91 94 91 86 81 83 77 73 67 69 71 75 65 56 61 58 52 51 46 50 44
61 61 66 74 69 70 72 71 66 61 64 76 82 82 81 87 90 95 93 90 99 103 103 101 95 91 84 82 81 74 68 69 73 70 69 57 56 53 47 46 44 57 50
81 80 77 68 74 78 72 72 75 76 80 84 84 82 87 97 90 88 89 92 95 106 110 109 105 96 88 86 85 77 68 69 74 72 61 56 50 48 49 54 58 63 50
83 97 84 84 79 67 63 80 84 91 95 99 103 102 100 101 91 89 86 80 84 99 110 117 115 103 92 88 88 81 74 65 69 70 54 51 47 49 53 56 58 57 44
84 79 76 70 74 74 77 88 94 90 83 94 95 94 93 92 95 100 113 114 99 90 102 112 111 107 104 95 101 91 82 67 68 65 51 50 46 49 48 54 52 41 40
75 67 74 84 78 70 75 87 92 89 84 81 91 101 103 104 104 103 104 106 106 108 100 102 106 104 107 100 105 98 78 65 64 63 54 53 48 49 50 51 45 47 42
78 71 71 73 77 80 78 82 86 86 89 89 95 100 101 106 109 112 113 110 101 103 104 97 92 88 101 105 109 96 75 66 61 57 64 55 52 58 56 51 48 43 37
77 76 76 77 83 80 75 71 74 75 81 87 97 104 109 111 121 125 125 119 125 111 102 96 92 84 94 104 109 102 85 53 56 63 59 65 71 75 63 53 48 44 40
76 75 76 78 80 77 76 72 66 67 79 90 102 105 101 89 89 92 110 124 121 115 108 100 92 86 89 93 78 64 53 48 60 57 69 81 87 79 64 56 50 45 40
Wind_Direction_850mb
292 268 223 221 217 214 210 210 225 215 208 209 212 211 225 225 231 247 236 239 255 240 242 242 248 253 260 262 262 260 259 264 273 284 281 283 286 307 316 328 318 301 303
274 241 228 231 234 234 232 231 226 224 218 222 227 233 229 221 220 228 231 224 233 245 245 247 249 272 270 266 260 257 255 264 269 272 288 294 295 302 308 311 320 321 302
288 274 240 231 230 230 230 224 223 228 217 218 226 230 235 240 237 229 214 208 210 209 266 255 259 263 273 263 264 261 253 263 268 270 268 269 279 293 309 295 322 331 324
282 274 261 230 224 220 213 211 213 217 219 216 218 227 232 234 236 236 232 233 238 224 238 268 263 260 271 267 273 271 267 264 266 264 257 248 261 277 291 293 317 327 319
282 276 254 235 211 203 200 202 208 213 219 220 224 230 234 232 230 237 241 243 240 236 246 254 256 256 267 258 262 273 277 266 263 257 259 255 249 260 266 284 307 309 316
277 272 245 222 194 192 193 191 198 210 227 239 242 240 238 239 243 244 242 244 244 244 243 247 247 264 267 260 262 269 274 266 262 259 259 245 253 265 255 273 298 306 295
279 230 204 186 182 183 183 197 211 226 232 234 251 254 249 244 243 243 244 247 248 244 236 232 236 241 254 247 257 269 272 266 262 262 261 263 265 276 270 261 282 291 299
24 164 178 177 181 185 203 206 208 196 208 238 252 264 258 252 249 246 248 249 248 249 244 247 249 250 250 251 252 259 263 273 259 262 261 264 274 273 270 260 261 284 284
223 243 196 199 205 208 205 206 203 213 219 230 241 246 259 262 257 264 264 259 257 254 257 251 252 249 245 249 250 254 258 265 270 266 263 259 264 273 269 263 276 278 278
105 59 216 226 230 219 211 213 221 227 227 229 235 245 243 255 263 259 262 269 268 259 258 257 253 253 250 248 251 250 253 254 263 267 262 260 264 273 263 261 282 275 259
181 340 8 319 281 227 211 220 229 228 228 234 241 242 238 236 245 256 259 267 280 270 267 267 265 261 262 255 258 257 258 258 257 263 261 262 262 266 262 264 276 266 254
195 233 260 311 315 286 244 230 237 229 233 245 243 240 241 240 239 243 252 267 277 279 282 276 274 276 273 269 267 267 263 263 260 262 261 260 261 265 268 271 273 255 249
245 246 250 255 291 291 276 253 244 240 241 245 244 241 239 239 237 237 249 260 274 277 280 283 275 273 277 276 274 276 273 270 268 264 270 258 260 262 268 274 270 259 249
254 258 249 257 281 271 260 262 274 281 246 248 251 240 239 238 238 235 241 257 267 265 271 278 279 284 283 280 282 281 277 280 275 263 251 259 259 257 267 272 261 259 245
269 299 280 289 284 272 266 283 275 281 249 244 240 239 237 240 238 238 241 255 258 255 265 272 274 280 283 282 280 284 285 269 276 278 267 251 246 254 260 260 257 251 235
329 315 341 281 310 312 275 274 281 276 279 261 249 243 241 235 233 245 249 256 255 256 263 265 272 277 287 280 282 275 275 266 267 270 268 270 260 255 264 261 260 241 240
336 325 323 316 300 289 288 281 281 279 280 279 267 261 252 244 248 257 250 251 249 255 262 266 272 278 283 278 288 287 266 270 266 266 270 267 264 261 260 263 257 237 242
322 317 311 305 300 295 290 289 288 286 283 278 273 269 267 266 263 259 252 251 253 254 258 264 269 273 274 281 285 288 279 264 269 267 267 268 266 261 259 253 246 240 230
309 302 299 296 292 291 294 293 290 281 277 274 272 273 275 269 265 263 262 254 251 253 252 256 260 262 269 277 282 284 280 264 264 263 262 266 262 256 252 228 232 245 226
302 304 305 294 290 291 288 280 275 273 273 272 272 270 269 270 265 257 254 256 255 254 255 255 255 256 262 272 274 279 279 275 263 261 261 262 259 246 237 222 231 234 229
299 300 297 288 284 278 275 279 279 276 276 279 282 278 268 260 255 252 247 244 250 252 253 253 252 252 257 267 270 273 283 273 263 259 263 262 258 238 225 228 228 229 227
297 295 293 292 288 284 286 285 281 279 275 276 275 267 262 260 256 253 251 250 250 245 244 246 248 250 254 258 262 271 277 268 264 251 256 266 246 224 223 234 215 210 204
295 293 293 293 294 287 283 281 280 282 281 272 270 269 266 261 256 252 249 248 244 242 238 233 237 242 250 253 257 269 271 265 250 242 248 262 220 219 226 198 192 191 195
300 300 297 294 290 287 285 283 282 282 279 278 279 275 270 265 258 248 244 242 237 234 230 227 225 230 241 244 254 264 266 259 233 234 239 229 214 213 187 185 190 196 201
300 300 298 295 296 302 300 299 295 292 289 287 283 278 271 258 256 253 244 235 235 228 220 220 221 226 237 244 253 258 259 237 229 218 222 195 193 182 185 186 190 195 196
304 302 301 300 303 305 308 310 307 302 294 290 290 280 272 267 258 247 238 236 230 227 220 220 220 223 233 244 250 240 226 233 215 201 186 172 178 179 181 183 186 194 198